EW6320 Weather Reports


Display with metric or nautical units.
time (UTC)temp
F
wind
direction
speed
MPH
gust
MPH
rain 1hr
in
rain 24hr
in
rain mn
in
humidity
%
barometer
mb
20260906115506 71 59 2.0 8.0 0.00 0.00 0.00 90 1015.3
20260906115006 71 99 2.0 8.0 0.00 0.00 0.00 90 1015.3
20260906114505 71 44 2.0 7.0 0.00 0.00 0.00 89 1015.1
20260906114005 71 89 3.0 7.0 0.00 0.00 0.00 89 1014.9
20260906113730 71 82 2.0 7.0 0.00 0.00 0.00 89 1014.9
20260906113227 71 86 1.0 6.0 0.00 0.00 0.00 89 1014.9
20260906112506 71 49 1.0 6.0 0.00 0.00 0.00 89 1014.8
20260906112006 71 36 1.0 3.0 0.00 0.00 0.00 89 1014.7
20260906111503 71 5 1.0 3.0 0.00 0.00 0.00 88 1014.8
20260906111227 71 46 1.0 6.0 0.00 0.00 0.00 88 1014.7
20260906110504 72 84 1.0 6.0 0.00 0.00 0.00 88 1014.6
20260906110000 72 75 1.0 8.0 0.00 0.00 0.00 88 1014.3
20260906105720 72 35 1.0 8.0 0.00 0.00 0.00 88 1014.4
20260906104956 72 194 1.0 3.0 0.00 0.00 0.00 88 1014.3
20260906104456 72 26 1.0 5.0 0.00 0.00 0.00 88 1014.3
20260906104217 72 355 1.0 6.0 0.00 0.00 0.00 87 1014.2
20260906103456 72 78 1.0 6.0 0.00 0.00 0.00 87 1014.2
20260906102951 72 280 1.0 6.0 0.00 0.00 0.00 87 1014.2
20260906102452 72 24 1.0 6.0 0.00 0.00 0.00 87 1014.0
20260906101948 72 34 1.0 3.0 0.00 0.00 0.00 87 1014.0
20260906101448 73 355 1.0 3.0 0.00 0.00 0.00 87 1013.9
20260906100948 73 25 0.0 3.0 0.00 0.00 0.00 87 1013.9
20260906100447 73 25 1.0 3.0 0.00 0.00 0.00 87 1013.9
20260906100207 73 37 1.0 2.0 0.00 0.00 0.00 86 1013.9
20260906095444 73 34 1.0 3.0 0.00 0.00 0.00 86 1013.9
20260906094940 73 355 1.0 3.0 0.00 0.00 0.00 86 1013.9
20260906094440 74 46 1.0 3.0 0.00 0.00 0.00 86 1013.9
20260906094204 74 19 1.0 3.0 0.00 0.00 0.00 86 1013.7
20260906093439 74 9 1.0 3.0 0.00 0.00 0.00 86 1013.7
20260906092935 74 15 1.0 3.0 0.00 0.00 0.00 86 1013.6
20260906092436 74 26 1.0 2.0 0.00 0.00 0.00 85 1013.7
20260906091931 74 36 1.0 2.0 0.00 0.00 0.00 85 1013.7
20260906091431 75 40 1.0 3.0 0.00 0.00 0.00 85 1013.6
20260906090925 75 45 1.0 3.0 0.00 0.00 0.00 85 1013.6
20260906090422 75 13 1.0 2.0 0.00 0.00 0.00 84 1013.5
20260906085922 75 57 1.0 3.0 0.00 0.00 0.00 84 1013.5
20260906085644 75 82 1.0 3.0 0.00 0.00 0.00 84 1013.5
20260906084922 75 81 1.0 3.0 0.00 0.00 0.00 83 1013.5
20260906084422 75 41 1.0 2.0 0.00 0.00 0.00 83 1013.4
20260906083921 76 34 0.0 2.0 0.00 0.00 0.00 83 1013.4
20260906083420 76 44 1.0 4.0 0.00 0.00 0.00 83 1013.4
20260906082918 76 43 1.0 4.0 0.00 0.00 0.00 82 1013.4
20260906082417 76 238 1.0 4.0 0.00 0.00 0.00 81 1013.4
20260906081915 76 38 1.0 4.0 0.00 0.00 0.00 81 1013.4
20260906081417 76 26 1.0 3.0 0.00 0.00 0.00 81 1013.4
20260906080915 77 31 1.0 2.0 0.00 0.00 0.00 80 1013.4
20260906080640 77 34 0.0 4.0 0.00 0.00 0.00 80 1013.2
20260906080128 77 29 1.0 4.0 0.00 0.00 0.00 80 1013.2
20260906075409 77 41 1.0 4.0 0.00 0.00 0.00 79 1013.2
20260906074909 77 48 2.0 5.0 0.00 0.00 0.00 79 1013.3
20260906074407 78 13 1.0 5.0 0.00 0.00 0.00 79 1013.3
20260906073905 78 46 0.0 2.0 0.00 0.00 0.00 79 1013.3
20260906073633 78 46 0.0 2.0 0.00 0.00 0.00 79 1013.2
20260906072901 78 46 1.0 2.0 0.00 0.00 0.00 78 1013.2
20260906072405 78 46 0.0 2.0 0.00 0.00 0.00 78 1013.2
20260906071901 78 69 0.0 2.0 0.00 0.00 0.00 78 1013.1
20260906071401 79 69 1.0 2.0 0.00 0.00 0.00 78 1013.1
20260906070859 79 69 1.0 4.0 0.00 0.00 0.00 78 1013.2
20260906070358 79 61 1.0 4.0 0.00 0.00 0.00 78 1013.2
20260906065855 79 101 1.0 3.0 0.00 0.00 0.00 78 1013.1
20260906065355 79 98 1.0 3.0 0.00 0.00 0.00 78 1013.1
20260906064854 80 86 0.0 3.0 0.00 0.00 0.00 77 1013.2
20260906064355 80 40 1.0 4.0 0.00 0.00 0.00 77 1013.3
20260906063853 80 97 2.0 4.0 0.00 0.00 0.00 76 1013.3
20260906063354 80 67 2.0 7.0 0.00 0.00 0.00 76 1013.4
20260906062853 80 98 2.0 6.0 0.00 0.00 0.00 75 1013.3
20260906062347 80 47 3.0 7.0 0.00 0.00 0.00 75 1013.4
20260906061847 80 76 3.0 7.0 0.00 0.00 0.00 75 1013.6
20260906061347 81 70 3.0 9.0 0.00 0.00 0.00 76 1013.5
20260906060841 81 80 3.0 9.0 0.00 0.00 0.00 76 1013.6
20260906060341 81 84 2.0 6.0 0.00 0.00 0.00 77 1013.7
20260906055841 81 57 1.0 8.0 0.00 0.00 0.00 77 1013.7
20260906055335 81 39 2.0 8.0 0.00 0.00 0.00 77 1013.6
20260906055058 81 123 2.0 8.0 0.00 0.00 0.00 77 1013.6
20260906054335 82 99 2.0 8.0 0.00 0.00 0.00 76 1013.7
20260906053829 82 32 3.0 9.0 0.00 0.00 0.00 76 1013.6
20260906053329 82 63 3.0 9.0 0.00 0.00 0.00 75 1013.6
20260906052829 82 79 3.0 8.0 0.00 0.00 0.00 75 1013.5
20260906052327 82 89 3.0 8.0 0.00 0.00 0.00 75 1013.5
20260906051827 82 42 3.0 8.0 0.00 0.00 0.00 76 1013.6
20260906051547 83 42 3.0 8.0 0.00 0.00 0.00 76 1013.6
20260906050827 83 111 3.0 7.0 0.00 0.00 0.00 76 1013.6
20260906050551 83 142 3.0 7.0 0.00 0.00 0.00 76 1013.4
20260906045821 83 101 3.0 12.0 0.00 0.00 0.00 75 1013.3
20260906045321 83 29 3.0 12.0 0.00 0.00 0.00 75 1013.2
20260906044819 84 71 3.0 8.0 0.00 0.00 0.00 75 1013.2
20260906044318 84 63 2.0 8.0 0.00 0.00 0.00 75 1013.1
20260906044038 84 42 3.0 8.0 0.00 0.00 0.00 74 1013.1
20260906043318 84 76 2.0 7.0 0.00 0.00 0.00 74 1013.1
20260906043035 84 76 2.0 7.0 0.00 0.00 0.00 74 1013.0
20260906042539 84 37 2.0 7.0 0.00 0.00 0.00 74 1013.0
20260906041811 85 40 1.0 4.0 0.00 0.00 0.00 73 1013.0
20260906041527 85 86 1.0 3.0 0.00 0.00 0.00 73 1013.0
20260906040809 85 69 1.0 2.0 0.00 0.00 0.00 73 1012.9
20260906040306 85 42 1.0 3.0 0.00 0.00 0.00 72 1013.0
20260906035804 85 29 1.0 3.0 0.00 0.00 0.00 72 1013.0
20260906035306 85 34 0.0 2.0 0.00 0.00 0.00 72 1013.0
20260906035018 85 42 0.0 1.0 0.00 0.00 0.00 71 1012.8
20260906034257 86 42 0.0 2.0 0.00 0.00 0.00 71 1012.8
20260906034015 86 42 0.0 2.0 0.00 0.00 0.00 71 1012.8
20260906033253 86 42 0.0 1.0 0.00 0.00 0.00 71 1012.7
20260906032751 86 42 0.0 1.0 0.00 0.00 0.00 70 1012.6
20260906032510 86 42 0.0 1.0 0.00 0.00 0.00 70 1012.6
20260906031748 87 42 0.0 1.0 0.00 0.00 0.00 69 1012.5
20260906031725 87 42 0.0 2.0 0.00 0.00 0.00 69 1012.6
20260906031011 87 42 0.0 2.0 0.00 0.00 0.00 68 1012.5
20260906030245 87 42 0.0 2.0 0.00 0.00 0.00 68 1012.5
20260906025735 87 42 0.0 2.0 0.00 0.00 0.00 68 1012.5
20260906025235 87 42 1.0 3.0 0.00 0.00 0.00 67 1012.4
20260906024731 87 109 1.0 3.0 0.00 0.00 0.00 67 1012.5
20260906024229 87 70 1.0 6.0 0.00 0.00 0.00 67 1012.4
20260906023728 87 47 2.0 6.0 0.00 0.00 0.00 67 1012.4
20260906023225 88 56 2.0 7.0 0.00 0.00 0.00 66 1012.4
20260906022723 88 86 2.0 7.0 0.00 0.00 0.00 66 1012.3
20260906022223 88 59 2.0 4.0 0.00 0.00 0.00 66 1012.2
20260906021940 88 49 1.0 4.0 0.00 0.00 0.00 66 1012.1
20260906021217 87 105 0.0 4.0 0.00 0.00 0.00 66 1012.0
20260906020721 88 336 0.0 0.0 0.00 0.00 0.00 66 1011.9
20260906020435 88 336 0.0 0.0 0.00 0.00 0.00 65 1011.8
20260906020156 88 336 0.0 0.0 0.00 0.00 0.00 64 1011.7
20260906015211 88 336 0.0 0.0 0.00 0.00 0.00 64 1011.5
20260906014710 88 336 0.0 0.0 0.00 0.00 0.00 64 1011.5
20260906014209 89 336 0.0 0.0 0.00 0.00 0.00 64 1011.5
20260906013703 89 336 0.0 0.0 0.00 0.00 0.00 64 1011.5
20260906013203 89 336 0.0 0.0 0.00 0.00 0.00 63 1011.4
20260906012703 89 336 0.0 0.0 0.00 0.00 0.00 63 1011.5
20260906012157 89 336 0.0 0.0 0.00 0.00 0.00 63 1011.5
20260906011657 89 336 0.0 0.0 0.00 0.00 0.00 63 1011.5
20260906011157 89 336 0.0 0.0 0.00 0.00 0.00 62 1011.4
20260906010909 89 336 0.0 0.0 0.00 0.00 0.00 62 1011.3
20260906010414 89 336 0.0 0.0 0.00 0.00 0.00 62 1011.3
20260906005651 90 336 0.0 0.0 0.00 0.00 0.00 61 1011.2
20260906005144 90 336 0.0 0.0 0.00 0.00 0.00 61 1011.2
20260906004645 90 336 0.0 0.0 0.00 0.00 0.00 61 1011.2
20260906004142 91 336 0.0 0.0 0.00 0.00 0.00 60 1011.2
20260906003637 91 336 0.0 0.0 0.00 0.00 0.00 58 1011.0
20260906003137 92 336 0.0 0.0 0.00 0.00 0.00 57 1011.0
20260906002637 92 336 0.0 0.0 0.00 0.00 0.00 57 1011.1
20260906002130 92 336 0.0 0.0 0.00 0.00 0.00 57 1011.2
20260906002117 93 336 0.0 0.0 0.00 0.00 0.00 56 1011.2
20260906001129 93 336 0.0 0.0 0.00 0.00 0.00 55 1011.2
20260906000626 94 336 0.0 0.0 0.00 0.00 0.00 54 1011.2
20260906000131 94 313 0.0 0.0 0.00 0.00 0.00 53 1011.2
20260905235627 94 313 0.0 2.0 0.00 0.00 0.00 53 1011.3
20260905235127 95 313 0.0 2.0 0.00 0.00 0.00 52 1011.3
20260905234625 95 309 0.0 2.0 0.00 0.00 0.00 52 1011.2
20260905234123 95 309 1.0 3.0 0.00 0.00 0.00 52 1011.2
20260905233623 95 309 1.0 3.0 0.00 0.00 0.00 51 1011.1
20260905233123 96 324 1.0 4.0 0.00 0.00 0.00 51 1011.1
20260905232623 96 316 2.0 4.0 0.00 0.00 0.00 51 1011.1
20260905232122 96 298 1.0 4.0 0.00 0.00 0.00 50 1011.1
20260905231621 97 281 2.0 3.0 0.00 0.00 0.00 50 1011.1
20260905231114 97 321 1.0 3.0 0.00 0.00 0.00 50 1011.0
20260905230608 97 317 1.0 3.0 0.00 0.00 0.00 50 1011.0
20260905230109 97 335 2.0 4.0 0.00 0.00 0.00 48 1011.1
20260905225609 97 312 2.0 4.0 0.00 0.00 0.00 48 1011.1
20260905225105 97 13 2.0 9.0 0.00 0.00 0.00 48 1011.1
20260905224605 98 306 2.0 9.0 0.00 0.00 0.00 48 1011.0
20260905224101 98 300 3.0 9.0 0.00 0.00 0.00 47 1011.0
20260905223601 98 323 4.0 9.0 0.00 0.00 0.00 46 1010.9
20260905223100 99 324 3.0 9.0 0.00 0.00 0.00 46 1010.9
20260905222601 99 342 2.0 6.0 0.00 0.00 0.00 47 1010.9
20260905222057 99 330 3.0 10.0 0.00 0.00 0.00 46 1010.9
20260905221558 99 311 4.0 11.0 0.00 0.00 0.00 45 1011.0
20260905221053 100 324 4.0 12.0 0.00 0.00 0.00 46 1010.9
20260905220553 99 321 4.0 12.0 0.00 0.00 0.00 45 1010.8
20260905220052 100 321 4.0 10.0 0.00 0.00 0.00 46 1011.0
20260905215553 101 291 4.0 12.0 0.00 0.00 0.00 43 1010.8
20260905215048 101 32 5.0 12.0 0.00 0.00 0.00 42 1010.7
20260905214818 101 309 6.0 11.0 0.00 0.00 0.00 41 1010.7
20260905214045 101 314 5.0 13.0 0.00 0.00 0.00 41 1010.8
20260905213545 101 273 4.0 13.0 0.00 0.00 0.00 40 1010.8
20260905213045 102 314 4.0 13.0 0.00 0.00 0.00 40 1010.7
20260905212544 102 316 3.0 9.0 0.00 0.00 0.00 40 1010.8
20260905212041 102 315 4.0 13.0 0.00 0.00 0.00 39 1010.9
20260905211541 102 309 4.0 13.0 0.00 0.00 0.00 40 1010.9
20260905211038 102 298 3.0 8.0 0.00 0.00 0.00 41 1010.9
20260905210539 102 309 3.0 8.0 0.00 0.00 0.00 42 1010.9
20260905210043 101 265 3.0 8.0 0.00 0.00 0.00 42 1011.0
20260905205534 101 265 2.0 7.0 0.00 0.00 0.00 42 1011.1
20260905205306 100 19 2.0 7.0 0.00 0.00 0.00 44 1011.2
20260905204537 100 346 2.0 7.0 0.00 0.00 0.00 45 1011.2
20260905204035 99 316 4.0 11.0 0.00 0.00 0.00 45 1011.2
20260905203532 99 24 6.0 11.0 0.00 0.00 0.00 43 1011.2
20260905203032 100 302 5.0 13.0 0.00 0.00 0.00 42 1011.3
20260905202532 101 261 4.0 13.0 0.00 0.00 0.00 41 1011.3
20260905202033 101 313 5.0 12.0 0.00 0.00 0.00 42 1011.3
20260905201533 101 323 5.0 12.0 0.00 0.00 0.00 43 1011.4
20260905201036 100 292 4.0 11.0 0.00 0.00 0.00 42 1011.5
20260905200529 101 307 4.0 9.0 0.00 0.00 0.00 42 1011.4
20260905200030 101 227 3.0 9.0 0.00 0.00 0.00 42 1011.4
20260905195753 101 276 3.0 9.0 0.00 0.00 0.00 43 1011.5
20260905195027 100 278 3.0 9.0 0.00 0.00 0.00 44 1011.5
20260905195018 100 323 5.0 11.0 0.00 0.00 0.00 44 1011.5
20260905194022 99 250 4.0 11.0 0.00 0.00 0.00 45 1011.6
20260905193522 99 286 4.0 9.0 0.00 0.00 0.00 45 1011.7
20260905193240 99 300 4.0 9.0 0.00 0.00 0.00 44 1011.8
20260905192521 100 295 3.0 9.0 0.00 0.00 0.00 44 1011.8
20260905192012 101 315 4.0 13.0 0.00 0.00 0.00 43 1011.9
20260905191515 100 316 6.0 13.0 0.00 0.00 0.00 44 1012.1
20260905191008 100 269 6.0 13.0 0.00 0.00 0.00 42 1012.2
20260905190733 101 261 5.0 13.0 0.00 0.00 0.00 43 1012.2
20260905190004 100 333 6.0 12.0 0.00 0.00 0.00 43 1012.3
20260905185508 100 303 6.0 12.0 0.00 0.00 0.00 42 1012.3
20260905184958 100 286 5.0 12.0 0.00 0.00 0.00 43 1012.4
20260905184456 100 296 5.0 11.0 0.00 0.00 0.00 44 1012.4
20260905183957 100 275 3.0 9.0 0.00 0.00 0.00 46 1012.5
20260905183456 99 208 3.0 8.0 0.00 0.00 0.00 47 1012.6
20260905182952 99 287 3.0 12.0 0.00 0.00 0.00 47 1012.7
20260905182450 98 346 3.0 12.0 0.00 0.00 0.00 48 1012.7
20260905181949 98 104 5.0 12.0 0.00 0.00 0.00 50 1012.7
20260905181705 98 309 4.0 12.0 0.00 0.00 0.00 49 1012.7
20260905180944 98 277 2.0 8.0 0.00 0.00 0.00 49 1012.7
20260905180444 98 300 3.0 8.0 0.00 0.00 0.00 51 1012.8
20260905175940 97 316 5.0 10.0 0.00 0.00 0.00 51 1012.8
20260905175656 97 296 4.0 10.0 0.00 0.00 0.00 51 1012.9
20260905174938 97 315 3.0 8.0 0.00 0.00 0.00 52 1012.9
20260905174434 96 355 3.0 8.0 0.00 0.00 0.00 51 1012.9
20260905173932 97 304 3.0 8.0 0.00 0.00 0.00 53 1012.9
20260905173432 96 301 3.0 8.0 0.00 0.00 0.00 51 1013.0
20260905172928 97 316 2.0 6.0 0.00 0.00 0.00 51 1012.8
20260905172426 96 315 3.0 7.0 0.00 0.00 0.00 53 1012.9
20260905171929 96 293 2.0 7.0 0.00 0.00 0.00 52 1013.0
20260905171424 98 275 2.0 7.0 0.00 0.00 0.00 52 1013.0
20260905170923 97 286 3.0 7.0 0.00 0.00 0.00 52 1013.2
20260905170636 96 297 3.0 7.0 0.00 0.00 0.00 53 1013.2
20260905165918 96 310 3.0 7.0 0.00 0.00 0.00 54 1013.4
20260905165636 96 240 3.0 7.0 0.00 0.00 0.00 53 1013.5
20260905164912 95 318 3.0 7.0 0.00 0.00 0.00 53 1013.6
20260905164412 95 240 3.0 7.0 0.00 0.00 0.00 53 1013.7
20260905163911 95 173 3.0 8.0 0.00 0.00 0.00 53 1013.8
20260905163629 95 250 3.0 8.0 0.00 0.00 0.00 54 1013.8
20260905162906 94 296 4.0 10.0 0.00 0.00 0.00 55 1013.8
20260905162406 94 248 4.0 10.0 0.00 0.00 0.00 56 1013.7
20260905162121 94 309 3.0 7.0 0.00 0.00 0.00 54 1013.7
20260905161359 93 320 3.0 7.0 0.00 0.00 0.00 56 1013.7
20260905160900 93 287 4.0 7.0 0.00 0.00 0.00 55 1013.9
20260905160613 93 307 4.0 8.0 0.00 0.00 0.00 56 1013.9
20260905155854 92 258 4.0 8.0 0.00 0.00 0.00 56 1013.9
20260905155354 92 230 4.0 8.0 0.00 0.00 0.00 56 1013.8
20260905154852 92 309 4.0 8.0 0.00 0.00 0.00 56 1013.9
20260905154352 93 306 3.0 8.0 0.00 0.00 0.00 56 1013.9
20260905154339 92 265 3.0 8.0 0.00 0.00 0.00 57 1013.9
20260905153352 92 296 4.0 8.0 0.00 0.00 0.00 57 1014.0
20260905152853 91 314 3.0 7.0 0.00 0.00 0.00 56 1014.0
20260905152346 91 259 3.0 6.0 0.00 0.00 0.00 58 1013.9
20260905151846 90 254 4.0 7.0 0.00 0.00 0.00 57 1014.0
20260905151346 90 286 4.0 8.0 0.00 0.00 0.00 58 1014.0
20260905150839 90 244 4.0 8.0 0.00 0.00 0.00 57 1013.8
20260905150340 90 250 4.0 8.0 0.00 0.00 0.00 58 1013.9
20260905145836 90 302 3.0 8.0 0.00 0.00 0.00 58 1014.0
20260905145336 89 300 3.0 7.0 0.00 0.00 0.00 60 1013.9
20260905144836 89 240 3.0 7.0 0.00 0.00 0.00 61 1013.9
20260905144335 89 275 3.0 7.0 0.00 0.00 0.00 61 1013.9
20260905143836 89 240 4.0 8.0 0.00 0.00 0.00 61 1013.9
20260905143330 89 290 4.0 9.0 0.00 0.00 0.00 61 1013.9
20260905142829 89 299 4.0 9.0 0.00 0.00 0.00 61 1013.9
20260905142329 88 300 3.0 8.0 0.00 0.00 0.00 62 1013.9
20260905141830 88 300 3.0 8.0 0.00 0.00 0.00 63 1013.9
20260905141329 87 287 3.0 5.0 0.00 0.00 0.00 64 1013.9
20260905140828 87 284 2.0 5.0 0.00 0.00 0.00 64 1013.9
20260905140326 87 257 2.0 4.0 0.00 0.00 0.00 65 1014.0
20260905135820 87 248 2.0 5.0 0.00 0.00 0.00 64 1014.2
20260905135320 86 296 2.0 5.0 0.00 0.00 0.00 65 1014.0
20260905134819 86 275 2.0 4.0 0.00 0.00 0.00 67 1014.0
20260905134320 86 261 1.0 4.0 0.00 0.00 0.00 67 1014.0
20260905134048 85 258 1.0 3.0 0.00 0.00 0.00 68 1014.0
20260905133317 85 236 1.0 3.0 0.00 0.00 0.00 69 1014.0
20260905132818 84 244 1.0 3.0 0.00 0.00 0.00 70 1014.0
20260905132317 84 238 0.0 3.0 0.00 0.00 0.00 71 1014.0
20260905131817 83 217 0.0 0.0 0.00 0.00 0.00 71 1013.9
20260905131315 83 144 0.0 0.0 0.00 0.00 0.00 72 1014.0
20260905131300 82 144 0.0 0.0 0.00 0.00 0.00 72 1014.0
20260905130314 82 144 0.0 0.0 0.00 0.00 0.00 73 1013.9
20260905125809 81 93 0.0 0.0 0.00 0.00 0.00 75 1013.9
20260905125531 81 93 0.0 0.0 0.00 0.00 0.00 75 1013.9
20260905124809 80 93 0.0 0.0 0.00 0.00 0.00 76 1013.8
20260905124310 79 93 0.0 0.0 0.00 0.00 0.00 77 1013.7
20260905123805 79 93 0.0 0.0 0.00 0.00 0.00 78 1013.7
20260905123525 78 93 0.0 0.0 0.00 0.00 0.00 78 1013.7
20260905122802 77 93 0.0 0.0 0.00 0.00 0.00 80 1013.8
20260905122302 77 93 0.0 0.0 0.00 0.00 0.00 81 1013.8
20260905121801 76 93 0.0 0.0 0.00 0.00 0.00 82 1013.7
20260905121301 76 93 0.0 0.0 0.00 0.00 0.00 83 1013.6
20260905121242 75 93 0.0 0.0 0.00 0.00 0.00 83 1013.6
20260905120517 75 93 0.0 0.0 0.00 0.00 0.00 83 1013.5